Dewpoint
53 53 53 53 53 56 58 61 61 60 59 59 58 57 57 58 51 39 31 31 39 42 35 24 19 21 22 26 29 27 17 9 11 14 11 18 18 23 25 23 24 24 23 24 26
52 52 52 52 52 53 54 57 59 61 60 59 58 57 57 57 42 30 38 39 38 41 25 19 17 18 18 22 26 22 12 11 16 14 11 15 18 19 21 22 23 23 24 25 26
51 51 51 51 51 52 52 53 56 58 60 60 59 58 57 49 36 23 40 35 36 34 28 25 21 17 15 22 24 22 14 12 12 14 14 14 15 20 19 15 20 20 23 24 25
51 51 51 50 50 52 53 53 52 55 59 59 60 58 54 38 32 13 31 31 37 32 21 19 17 16 15 15 22 17 20 18 17 18 19 18 18 18 21 17 19 22 24 24 24
50 50 50 50 50 50 52 51 53 52 56 58 58 56 41 42 39 20 28 21 16 17 17 17 17 15 12 15 15 19 18 18 19 18 19 19 18 18 18 22 23 24 24 23 24
48 50 50 50 49 49 50 52 52 52 53 55 58 49 39 39 30 13 16 15 14 18 22 21 19 19 18 19 16 18 20 22 24 25 20 19 20 21 22 25 23 24 24 23 23
48 49 50 50 50 51 51 51 52 52 52 54 56 43 39 41 19 12 13 14 16 19 21 24 24 23 23 24 26 26 27 29 30 28 28 24 25 26 25 25 24 24 23 23 22
47 49 50 49 50 51 52 53 54 54 52 54 53 38 40 38 22 13 17 21 23 23 25 29 29 27 24 27 31 30 28 26 29 23 24 24 19 24 23 24 24 23 22 22 22
47 49 50 49 50 50 52 53 54 55 54 54 42 39 38 31 13 14 17 19 21 26 27 26 25 27 28 29 27 28 23 26 25 21 22 19 15 18 25 25 22 25 23 22 23
48 51 51 49 50 51 52 51 55 54 47 40 37 36 35 32 19 18 20 21 26 28 29 27 24 25 24 26 18 17 22 24 23 20 21 19 18 20 22 24 23 25 25 26 24
49 51 51 49 50 51 50 43 40 39 38 37 35 35 34 21 18 18 19 18 24 29 25 27 25 23 23 25 24 23 22 22 22 19 15 13 13 12 14 19 21 26 27 23 18
47 52 51 49 49 50 43 39 39 40 35 38 38 37 37 17 25 18 17 15 20 18 26 22 19 21 24 22 21 21 20 19 16 10 10 9 9 13 20 22 24 24 27 14 11
46 49 52 50 49 46 41 41 45 45 36 37 41 36 18 12 18 17 15 13 15 15 19 17 16 18 18 18 18 19 17 13 7 9 11 12 15 18 23 19 16 17 15 13 10
47 48 50 49 45 45 43 45 46 47 28 26 35 16 9 10 10 19 15 17 12 14 12 12 12 9 13 10 12 7 10 9 9 6 5 13 12 15 22 20 14 12 13 8 10
46 47 49 48 44 43 44 45 46 43 -2 23 18 16 13 15 29 30 19 16 25 20 20 22 10 7 6 7 7 6 10 9 10 11 15 16 14 16 23 19 17 12 4 7 11
46 45 46 45 43 44 44 45 44 24 0 22 18 16 30 31 33 24 22 20 19 19 19 19 18 13 10 10 7 14 14 16 19 16 13 13 14 13 16 19 9 3 5 7 12
45 45 45 46 39 44 45 43 26 18 23 29 30 31 26 27 30 30 27 26 22 21 20 23 18 11 11 8 13 14 11 14 12 9 12 16 15 16 18 12 4 -1 7 8 13
44 42 45 46 44 44 44 35 20 15 22 31 29 27 23 25 26 26 23 21 24 23 21 22 20 11 13 13 19 11 10 15 13 10 3 17 13 13 13 12 7 8 10 9 16
43 42 43 44 44 43 38 26 19 20 27 28 25 22 28 26 25 27 25 23 24 24 24 22 22 13 11 10 7 11 7 13 8 8 6 6 8 11 10 8 5 9 7 11 16
41 39 40 43 44 42 32 25 24 26 33 29 21 25 22 25 22 24 25 24 24 30 31 25 20 17 13 11 10 10 13 14 13 12 3 -4 -1 -0 4 -2 6 7 4 12 16
40 34 39 43 44 38 26 27 28 33 33 30 25 25 23 25 26 27 25 26 31 29 30 26 23 19 15 12 11 8 11 11 18 13 1 -8 -1 12 -0 5 8 6 8 13 17
37 30 40 43 33 33 28 29 32 34 33 31 30 29 26 26 23 26 27 30 32 30 25 25 21 19 19 16 16 10 9 17 18 14 10 5 8 12 9 11 11 6 12 15 17
33 34 40 40 28 28 28 30 30 29 28 27 28 32 33 28 23 28 30 31 31 30 26 25 19 16 15 17 15 19 14 18 18 18 13 11 8 14 11 6 4 11 14 16 18
33 28 35 36 33 28 28 27 27 33 31 32 32 33 30 28 30 27 28 30 32 31 33 28 21 18 16 20 23 18 12 21 22 17 16 16 13 3 8 -3 8 14 14 16 20
33 30 31 27 30 29 28 26 27 27 33 32 31 31 28 25 26 26 29 29 29 31 29 27 20 18 19 20 21 23 20 18 20 18 18 12 5 5 10 -1 11 11 14 18 20
32 30 33 27 28 29 28 27 27 29 30 29 28 31 30 26 22 23 26 26 24 26 27 25 19 21 18 19 21 21 22 23 21 21 21 20 18 15 8 8 13 15 17 18 19
37 38 32 29 27 28 27 26 24 28 32 31 30 29 28 28 30 30 31 30 28 25 23 23 20 18 14 22 20 18 22 23 23 23 21 19 18 10 5 4 15 17 18 18 19
Wind_Speed
20 20 20 21 22 22 22 18 13 11 10 10 14 17 18 19 13 1 2 3 2 2 2 2 6 4 3 3 3 3 2 7 5 6 3 1 1 1 2 3 3 2 2 0 12
20 21 21 21 22 23 23 22 21 15 12 11 7 12 18 18 5 1 1 1 2 3 3 4 3 4 3 3 2 4 5 7 4 4 3 2 3 3 3 4 4 5 3 3 17
21 21 21 22 22 22 22 23 22 21 17 13 10 8 14 9 5 1 3 1 2 5 4 3 4 3 3 3 5 5 6 5 4 7 4 3 4 3 4 12 10 8 9 12 17
23 23 22 23 23 23 23 22 22 21 20 14 9 8 14 3 8 1 2 1 3 5 3 3 3 2 3 4 4 4 8 7 3 1 2 5 2 4 12 14 3 11 7 15 21
23 24 24 23 23 23 22 21 20 19 18 18 8 5 3 4 9 2 2 1 3 2 2 3 2 3 4 4 3 9 6 4 7 7 7 5 14 9 18 14 7 3 10 19 19
22 24 24 24 24 23 23 22 18 18 16 15 4 1 2 12 2 3 2 2 3 3 2 3 4 4 2 4 6 3 6 11 10 14 7 8 11 4 6 2 10 9 13 15 17
23 23 24 25 25 24 23 22 19 15 15 13 5 1 2 15 2 1 0 2 2 3 3 3 5 4 4 3 1 2 8 11 8 3 5 2 10 13 11 3 7 9 9 11 12
23 23 24 25 26 25 24 24 21 16 12 12 4 1 7 2 1 2 4 3 2 4 4 4 3 3 2 0 2 2 0 5 1 2 1 4 10 6 2 6 8 8 9 12 10
23 24 23 24 26 27 26 25 18 6 7 4 2 1 7 3 3 2 4 5 5 4 4 6 4 3 2 2 2 1 5 5 7 2 2 6 10 7 2 5 9 11 13 11 9
21 21 23 23 25 27 28 20 6 3 7 4 3 0 6 3 3 4 2 6 3 7 4 3 4 2 2 5 6 4 4 5 9 1 2 9 27 21 14 12 17 11 10 11 10
23 20 21 23 24 26 15 6 4 2 1 6 3 4 3 0 2 2 3 5 3 3 2 2 2 9 10 12 2 2 5 11 9 6 8 16 23 24 15 10 15 14 11 9 5
24 22 20 22 24 20 3 4 2 2 9 10 15 9 7 2 3 3 3 5 4 2 3 1 9 10 4 5 7 6 7 12 10 2 4 12 27 23 7 2 4 7 9 5 1
23 24 20 20 26 3 2 4 2 5 5 7 6 5 4 6 4 6 6 5 3 3 5 7 2 4 4 5 6 6 8 6 8 7 4 11 10 3 1 3 7 10 8 3 6
22 21 21 17 6 5 2 2 2 3 5 5 4 3 3 4 3 1 1 2 1 3 4 7 4 4 4 5 9 6 3 3 3 6 5 7 11 6 1 1 3 5 1 7 9
33 23 18 1 9 6 2 3 2 1 6 4 4 1 2 3 6 1 2 2 4 4 3 4 3 4 5 4 8 2 2 2 1 1 4 1 4 6 1 1 3 4 5 9 11
22 30 22 3 3 5 4 4 3 2 9 5 5 5 4 1 2 2 2 3 2 1 2 8 3 2 3 2 1 4 2 4 3 2 3 2 4 4 0 2 4 3 8 11 16
15 7 27 3 5 8 1 2 5 7 1 7 5 6 3 3 2 3 2 1 1 3 2 4 2 1 2 2 2 1 1 5 3 1 2 2 3 9 1 4 5 6 12 15 16
14 3 12 7 4 5 4 3 8 4 5 1 5 6 5 5 1 2 3 2 2 1 1 2 2 3 1 1 2 2 2 3 5 3 5 2 7 2 3 4 3 6 10 12 16
15 4 3 9 12 3 4 10 8 4 6 3 3 4 4 3 3 2 2 3 2 1 2 1 3 1 2 2 1 2 3 1 0 1 3 4 6 2 4 2 3 11 13 17 18
3 9 7 9 13 5 8 13 7 5 4 3 5 2 7 4 4 2 2 1 3 2 1 1 5 2 1 2 4 2 5 1 2 3 5 6 6 3 5 1 10 15 16 19 19
4 6 1 10 6 5 7 8 6 7 7 3 1 3 3 4 3 2 4 2 2 3 3 3 2 2 1 5 6 4 3 2 1 3 3 5 3 2 6 2 12 14 15 18 20
2 5 2 6 7 4 10 5 2 5 5 2 2 3 3 3 4 2 3 3 4 3 3 2 3 6 4 1 1 1 3 8 5 4 3 2 8 1 1 5 8 13 15 17 17
3 4 1 2 7 7 1 2 1 2 6 5 1 2 2 4 3 2 4 5 6 4 4 6 0 6 2 3 1 3 6 5 4 2 9 5 4 2 2 5 5 10 15 18 18
4 4 2 1 2 3 4 3 3 4 4 4 3 4 3 3 0 3 3 4 7 4 6 7 4 8 9 2 2 5 7 11 12 7 5 15 11 6 9 6 8 10 13 16 16
2 4 4 4 7 5 3 0 9 4 3 5 3 4 5 4 3 3 2 4 3 2 1 5 5 7 14 18 16 16 14 17 21 14 12 4 11 5 10 4 7 9 13 15 17
5 4 2 5 1 13 10 5 12 4 7 4 3 8 6 3 3 5 2 1 3 2 5 2 4 3 12 14 9 14 17 19 25 21 21 22 31 3 4 3 5 8 11 14 17
3 2 1 7 3 8 10 9 8 11 1 0 9 6 4 3 3 3 2 1 3 4 7 4 4 1 5 3 11 9 7 13 9 9 14 17 7 5 4 2 4 8 9 13 16
Wind_Direction
358 355 351 346 338 336 336 316 283 282 290 306 324 329 330 327 328 111 185 136 145 347 66 107 64 106 76 100 101 120 191 237 238 195 229 210 227 164 146 151 217 227 203 106 150
359 357 353 351 343 338 334 331 337 299 280 277 285 319 318 328 324 20 162 150 74 64 73 85 108 126 105 120 116 159 200 228 225 204 231 233 219 205 191 218 229 243 228 168 162
356 355 353 347 342 341 334 331 328 322 309 284 297 308 319 331 323 164 168 135 104 100 101 115 114 105 151 144 184 178 225 222 253 240 255 257 249 205 215 261 226 231 208 180 178
352 350 352 347 343 340 334 327 322 320 327 302 289 320 322 323 309 194 185 5 126 126 113 102 81 114 183 206 180 226 244 230 259 179 207 236 227 233 221 248 218 222 193 177 185
349 344 346 345 343 339 338 334 322 316 321 330 296 324 352 334 260 188 87 67 109 115 109 137 160 165 211 198 184 231 255 239 261 278 258 254 251 248 255 248 239 191 181 189 191
347 341 342 340 339 338 335 333 329 316 316 320 320 272 117 290 173 145 99 110 127 125 128 135 162 172 200 228 212 206 266 272 279 266 246 241 265 187 264 264 221 210 209 198 193
340 339 338 337 336 333 331 329 328 316 308 304 287 162 228 259 141 212 37 155 150 148 144 141 138 159 157 238 294 288 299 305 257 253 215 170 270 238 258 218 227 224 219 202 196
336 336 337 334 332 330 328 323 319 315 293 290 218 159 246 247 222 212 154 111 86 79 109 125 121 117 186 198 4 273 281 293 198 168 201 163 268 259 290 204 238 225 209 199 196
332 330 332 333 331 328 326 318 314 299 265 233 182 200 266 317 230 185 161 156 123 98 92 92 84 102 73 166 283 307 254 242 301 183 173 202 274 265 216 214 250 227 214 204 190
323 324 328 330 330 329 325 313 313 110 76 85 52 322 266 230 162 129 134 137 131 135 103 70 71 127 111 171 244 205 250 249 256 268 240 262 267 269 258 248 261 247 214 203 196
316 317 324 326 327 328 332 342 360 15 75 211 220 248 277 45 128 133 150 118 115 95 166 52 200 230 225 216 209 244 245 261 260 267 288 266 274 278 287 252 254 242 203 193 207
316 314 318 324 325 323 5 61 137 201 304 265 244 259 258 217 226 184 165 168 150 149 135 10 264 268 231 200 231 239 255 270 286 262 247 287 288 286 296 279 288 262 176 145 346
312 312 312 323 320 355 38 125 210 184 298 288 205 206 202 169 210 190 181 158 151 167 201 223 191 107 183 216 227 236 238 259 274 317 270 315 287 324 15 88 81 92 114 49 345
303 308 312 331 310 334 252 174 236 222 322 268 209 224 158 157 194 182 191 154 130 196 190 240 258 224 187 212 188 267 214 244 281 335 286 20 292 299 312 216 138 135 17 329 328
354 303 310 336 298 295 285 288 194 144 289 144 159 137 121 183 133 34 347 57 195 181 153 258 200 216 231 226 180 219 86 318 299 256 327 270 232 270 342 286 175 186 294 321 340
312 337 309 183 172 245 308 301 144 108 243 191 151 177 156 96 102 115 60 54 75 220 253 252 273 242 209 98 114 126 101 48 57 112 269 225 200 287 158 155 147 238 301 333 337
312 332 319 204 239 171 135 218 180 202 291 186 180 171 155 173 149 143 137 121 257 304 328 304 213 129 154 155 73 107 123 299 288 304 256 194 214 258 203 181 184 287 327 334 325
299 341 285 240 257 160 130 198 204 255 240 109 133 128 184 168 115 125 120 217 48 75 106 307 282 178 125 152 154 170 202 216 277 297 300 182 247 259 135 156 213 285 308 314 325
297 256 227 251 200 193 197 214 206 228 312 200 106 164 160 139 139 129 137 160 107 22 220 235 272 85 59 117 143 151 203 141 58 71 284 243 269 134 159 160 304 326 331 330 332
268 273 241 155 166 154 220 221 195 198 332 307 218 169 176 172 178 136 168 122 133 72 55 170 292 32 87 113 50 165 150 106 53 267 270 269 268 243 161 198 321 332 331 330 328
293 257 333 126 151 199 212 238 202 172 132 318 217 183 149 156 161 178 149 127 132 132 77 133 178 274 268 203 185 146 187 131 146 188 242 298 287 328 133 279 313 322 326 325 325
284 260 163 144 180 198 225 206 198 147 113 181 123 236 148 162 197 160 133 107 129 123 99 127 152 263 241 55 17 151 179 174 207 215 219 264 277 93 153 288 298 312 320 325 322
273 266 222 125 214 219 241 244 216 141 154 142 190 63 96 172 208 174 108 148 155 133 150 173 210 311 310 68 35 213 202 181 123 137 219 200 255 164 321 303 298 312 326 331 326
316 273 219 253 215 182 174 216 187 15 110 100 147 116 132 189 141 164 146 167 173 137 193 177 187 225 246 237 152 235 208 198 198 207 201 230 252 206 327 336 324 334 332 329 327
274 281 339 236 229 202 228 144 202 180 89 147 162 186 167 179 159 204 176 135 146 101 100 169 249 223 260 269 257 249 236 204 212 219 224 269 251 245 305 283 320 317 331 338 337
284 283 336 285 255 196 193 221 198 173 161 192 175 170 167 161 180 181 157 214 213 102 184 182 266 245 288 267 252 259 250 227 220 230 242 266 281 245 212 262 317 339 344 339 337
256 234 56 308 300 176 205 215 200 146 262 150 166 139 152 154 129 124 144 158 153 179 194 205 224 289 272 318 307 281 258 223 205 210 225 242 259 171 217 240 334 339 345 333 329